Date String (YYYY-MM-DD hh:mm:ss) UTC,Instrument flags,absolute air pressure of the measurement (hPa),sample flow rate (lpm),inlet stack bypass flow (lpm),air temperature of the measurement (°C),ambient temperature measured by the external sensor (°C),aerosol sample conditioner tube jacket temperature (°C),OPC LED temperature (°C),internal box temperature (°C),relative humidity of the measurement (%),span deviation,mass concentration of particles derived from Lorenz-Mie calculation of OPC scattering (μg/m³),mass concentration of particles derived from Lorenz-Mie calculation of OPC scattering (μg/m³),mass concentration of particles derived from Lorenz-Mie calculation of OPC scattering (μg/m³)
DateTimeUTC,F1_M11,P_M11,Q1_M11,Q2_M11,T1_M11,T2_M11,T3_M11,T4_M11,T5_M11,U1_M11,ZSPAN_M11,X2_M11,X0_M11,X1_M11
2023-11-01 16:00:00,SystemResetWarning,0833.4,5.00,000.00,021.9,021.0,000.0,030.3,023.3,12.8,0000.0,0002.21,0006.97,0001.57
2023-11-01 16:01:00,SystemResetWarning,0832.9,5.00,000.00,021.9,021.0,000.0,030.3,023.4,13.6,0000.0,0002.14,0007.41,0001.57
2023-11-01 16:02:00,SystemResetWarning,0832.9,5.00,000.00,021.9,021.0,000.0,030.3,023.4,14.6,0000.0,0002.16,0008.79,0001.58
2023-11-01 16:03:00,SystemResetWarning,0832.9,5.00,000.00,022.0,021.1,000.0,030.3,023.4,15.2,0000.0,0002.18,0008.91,0001.58
2023-11-01 16:04:00,SystemResetWarning,0832.9,5.00,000.00,022.0,021.1,000.0,030.3,023.4,14.0,0000.0,0002.16,0008.94,0001.58
2023-11-01 16:05:00,SystemResetWarning,0833.0,4.99,000.00,022.0,021.1,000.0,030.3,023.4,12.3,0000.0,0002.20,0008.98,0001.59
2023-11-01 16:06:00,SystemResetWarning,0832.9,4.99,000.00,022.0,021.1,000.0,030.3,023.4,11.6,0000.0,0002.20,0008.74,0001.60
2023-11-01 16:07:00,SystemResetWarning,0832.9,5.00,000.00,022.0,021.2,000.0,030.3,023.4,13.3,0000.0,0002.23,0008.74,0001.63
2023-11-01 16:08:00,SystemResetWarning,0833.0,5.00,000.00,022.0,021.2,000.0,030.3,023.4,14.1,0000.0,0002.31,0008.52,0001.66
2023-11-01 16:09:00,SystemResetWarning,0832.9,5.00,000.00,022.0,021.2,000.0,030.3,023.4,13.8,0000.0,0002.35,0008.01,0001.71
2023-11-01 16:10:00,SystemResetWarning,0833.0,5.00,000.00,022.0,021.2,000.0,030.3,023.4,13.2,0000.0,0002.37,0007.69,0001.73
2023-11-01 16:11:00,SystemResetWarning,0833.0,5.00,000.00,022.0,021.2,000.0,030.3,023.5,12.1,0000.0,0002.37,0007.54,0001.75
2023-11-01 16:12:00,SystemResetWarning,0833.0,5.00,000.00,022.0,021.2,000.0,030.3,023.5,11.6,0000.0,0002.39,0007.10,0001.78
2023-11-01 16:13:00,SystemResetWarning,0833.0,5.01,000.00,022.0,021.2,000.0,030.4,023.5,11.7,0000.0,0002.35,0004.70,0001.79
2023-11-01 16:14:00,SystemResetWarning,0833.4,5.01,000.00,022.0,021.2,000.0,030.4,023.5,11.6,0000.0,0002.31,0004.32,0001.79
2023-11-01 16:15:00,SystemResetWarning,0833.3,5.00,000.00,022.0,021.2,000.0,030.4,023.5,11.5,0000.0,0002.32,0004.25,0001.78
2023-11-01 16:16:00,SystemResetWarning,0833.3,4.99,000.00,022.1,021.2,000.0,030.4,023.5,13.6,0000.0,0002.34,0004.11,0001.79
2023-11-01 16:17:00,SystemResetWarning,0833.2,5.00,000.00,022.1,021.3,000.0,030.4,023.5,14.1,0000.0,0002.38,0004.14,0001.81
2023-11-01 16:18:00,SystemResetWarning,0833.1,5.00,000.00,022.1,021.3,000.0,030.4,023.5,14.1,0000.0,0002.35,0003.98,0001.82
2023-11-01 16:19:00,SystemResetWarning,0832.9,5.00,000.00,022.1,021.3,000.0,030.4,023.5,13.3,0000.0,0002.31,0003.78,0001.81
2023-11-01 16:20:00,SystemResetWarning,0833.3,5.00,000.00,022.1,021.3,000.0,030.4,023.5,12.5,0000.0,0002.31,0003.68,0001.83
2023-11-01 16:21:00,SystemResetWarning,0833.1,5.00,000.00,022.1,021.3,000.0,030.4,023.5,12.8,0000.0,0002.32,0003.62,0001.86
2023-11-01 16:22:00,SystemResetWarning,0832.8,5.01,000.00,022.1,021.3,000.0,030.4,023.5,13.2,0000.0,0002.33,0003.59,0001.89
2023-11-01 16:23:00,SystemResetWarning,0832.8,5.00,000.00,022.1,021.3,000.0,030.4,023.6,12.6,0000.0,0002.30,0003.39,0001.89
2023-11-01 16:24:00,SystemResetWarning,0832.7,5.00,000.00,022.1,021.3,000.0,030.4,023.6,12.8,0000.0,0002.27,0003.29,0001.90
2023-11-01 16:25:00,SystemResetWarning,0832.7,5.00,000.00,022.1,021.3,000.0,030.4,023.6,13.0,0000.0,0002.28,0003.21,0001.92
2023-11-01 16:26:00,SystemResetWarning,0832.7,4.99,000.00,022.1,021.3,000.0,030.4,023.6,13.2,0000.0,0002.28,0003.71,0001.96
2023-11-01 16:27:00,SystemResetWarning,0832.7,4.99,000.00,022.1,021.3,000.0,030.5,023.6,12.5,0000.0,0002.26,0004.06,0001.99
2023-11-01 16:28:00,SystemResetWarning,0832.7,4.99,000.00,022.1,021.3,000.0,030.5,023.6,12.3,0000.0,0002.21,0003.93,0001.98
2023-11-01 16:29:00,SystemResetWarning,0832.7,5.01,000.00,022.1,021.3,000.0,030.5,023.6,12.6,0000.0,0002.22,0004.02,0001.99
2023-11-01 16:30:00,SystemResetWarning,0832.6,5.01,000.00,022.1,021.3,000.0,030.5,023.6,12.2,0000.0,0002.20,0003.92,0001.98
2023-11-01 16:31:00,SystemResetWarning,0832.7,5.01,000.00,022.2,021.3,000.0,030.5,023.6,12.4,0000.0,0002.16,0003.83,0001.94
2023-11-01 16:32:00,SystemResetWarning,0832.6,4.99,000.00,022.2,021.3,000.0,030.5,023.6,12.7,0000.0,0002.05,0003.65,0001.86
2023-11-01 16:33:00,SystemResetWarning,0832.6,4.99,000.00,022.2,021.3,000.0,030.5,023.6,12.2,0000.0,0002.03,0003.66,0001.83
2023-11-01 16:34:00,SystemResetWarning,0832.6,5.00,000.00,022.2,021.4,000.0,030.5,023.6,12.6,0000.0,0002.06,0003.84,0001.80
2023-11-01 16:35:00,SystemResetWarning,0832.6,5.01,000.00,022.2,021.4,000.0,030.5,023.6,12.1,0000.0,0002.06,0004.49,0001.78
2023-11-01 16:36:00,SystemResetWarning,0832.6,5.00,000.00,022.2,021.4,000.0,030.5,023.7,12.1,0000.0,0002.06,0004.62,0001.76
2023-11-01 16:37:00,SystemResetWarning,0832.6,5.01,000.00,022.2,021.4,000.0,030.5,023.7,12.7,0000.0,0002.03,0004.17,0001.73
2023-11-01 16:38:00,SystemResetWarning,0832.7,5.00,000.00,022.2,021.4,000.0,030.5,023.6,12.9,0000.0,0002.03,0003.68,0001.70
2023-11-01 16:39:00,SystemResetWarning,0832.6,4.99,000.00,022.2,021.4,000.0,030.5,023.7,13.5,0000.0,0002.04,0003.74,0001.68
2023-11-01 16:40:00,SystemResetWarning,0832.6,4.99,000.00,022.2,021.4,000.0,030.5,023.7,12.9,0000.0,0002.06,0003.75,0001.69
2023-11-01 16:41:00,SystemResetWarning,0832.6,5.00,000.00,022.2,021.4,000.0,030.6,023.6,13.1,0000.0,0002.12,0003.86,0001.69
2023-11-01 16:42:00,SystemResetWarning,0832.6,5.00,000.00,022.2,021.4,000.0,030.6,023.7,12.2,0000.0,0002.14,0003.90,0001.71
2023-11-01 16:43:00,SystemResetWarning,0832.6,5.00,000.00,022.3,021.5,000.0,030.6,023.7,11.6,0000.0,0002.20,0004.12,0001.75
2023-11-01 16:44:00,SystemResetWarning,0832.7,5.00,000.00,022.3,021.4,000.0,030.6,023.7,11.5,0000.0,0002.21,0004.12,0001.75
2023-11-01 16:45:00,SystemResetWarning,0832.7,5.01,000.00,022.3,021.5,000.0,030.6,023.7,11.4,0000.0,0002.17,0003.96,0001.76
2023-11-01 16:46:00,SystemResetWarning,0832.7,5.00,000.00,022.3,021.5,000.0,030.6,023.7,11.5,0000.0,0002.20,0003.45,0001.77
2023-11-01 16:47:00,SystemResetWarning,0832.7,5.00,000.00,022.3,021.5,000.0,030.6,023.7,11.9,0000.0,0002.17,0004.21,0001.78
2023-11-01 16:48:00,SystemResetWarning,0832.7,5.00,000.00,022.3,021.5,000.0,030.6,023.7,13.0,0000.0,0002.18,0004.43,0001.79
2023-11-01 16:49:00,SystemResetWarning,0832.7,4.99,000.00,022.3,021.5,000.0,030.6,023.7,13.5,0000.0,0002.14,0004.27,0001.78
2023-11-01 16:50:00,SystemResetWarning,0832.7,4.99,000.00,022.3,021.5,000.0,030.6,023.7,13.9,0000.0,0002.10,0004.14,0001.77
2023-11-01 16:51:00,SystemResetWarning,0832.7,4.99,000.00,022.3,021.5,000.0,030.6,023.8,14.7,0000.0,0002.06,0003.99,0001.76
2023-11-01 16:52:00,SystemResetWarning,0832.7,5.00,000.00,022.3,021.5,000.0,030.6,023.8,13.5,0000.0,0002.07,0004.08,0001.76
2023-11-01 16:53:00,SystemResetWarning,0832.6,5.00,000.00,022.3,021.5,000.0,030.6,023.8,12.8,0000.0,0002.06,0004.28,0001.77
2023-11-01 16:54:00,SystemResetWarning,0832.6,5.00,000.00,022.3,021.5,000.0,030.6,023.8,12.4,0000.0,0002.08,0004.39,0001.76
2023-11-01 16:55:00,SystemResetWarning,0832.6,5.00,000.00,022.3,021.5,000.0,030.7,023.8,11.8,0000.0,0002.06,0004.35,0001.75
2023-11-01 16:56:00,SystemResetWarning,0832.7,5.00,000.00,022.3,021.5,000.0,030.7,023.8,11.4,0000.0,0002.04,0004.33,0001.73
2023-11-01 16:57:00,SystemResetWarning,0832.6,5.00,000.00,022.4,021.5,000.0,030.7,023.8,11.0,0000.0,0002.02,0004.50,0001.72
2023-11-01 16:58:00,SystemResetWarning,0832.6,5.00,000.00,022.4,021.5,000.0,030.7,023.8,10.9,0000.0,0002.05,0005.12,0001.72
2023-11-01 16:59:00,SystemResetWarning,0832.5,5.00,000.00,022.4,021.5,000.0,030.7,023.8,10.8,0000.0,0002.06,0004.57,0001.74
